Tracking 19827 objects as of 22-Aug-2019
HD Live streaming from Space Station
objects crossing your sky now

EXPLORER 30

Track EXPLORER 30 now!
10-day predictions
EXPLORER 30 is classified as:


NORAD ID: 1738
Int'l Code: 1965-093A
Perigee: 676.8 km
Apogee: 853.1 km
Inclination: 59.7 °
Period: 100.0 minutes
Semi major axis: 7135 km
RCS: 0.3725 m2 (medium)
Launch date: November 19, 1965
Source: United States (US)
Launch site: WALLOPS ISLAND (WLPIS)
aabbcc
Your satellite tracking list
Your tracking list is empty




NASA's NSSDC Master Catalog

Two Line Element Set (TLE):
1  1738U 65093A   19232.88106025 -.00000135  00000-0  57120-5 0  9999
2  1738  59.7088  68.9694 0123539 277.1658  81.5347 14.40196281818134
Source of the keplerian elements: AFSPC